Bartlesville, OK

7:53 PM CDT on July 20, 2017 (GMT -0500)
Bartlesville Municipal

Weather History for KBVO - October, 2012

Change the Weather History Date:

Sunday, October 14, 2012

  Actual Average Record
Temperature  
Mean Temperature 62 °F -  
Max Temperature 79 °F 77 °F 92 °F (1963)
Min Temperature 48 °F 51 °F 26 °F (2002)
Degree Days  
Heating Degree Days 2    
Growing Degree Days 12 (Base 50)    
Moisture  
Dew Point 51 °F    
Average Humidity 69    
Maximum Humidity 100    
Minimum Humidity 31    
Precipitation  
Precipitation 0.00 in - - ()
Sea Level Pressure  
Sea Level Pressure 29.91 in    
Wind  
Wind Speed 7 mph (WSW)    
Max Wind Speed 14 mph    
Max Gust Speed 22 mph    
Visibility 10 miles    
Events      
Averages and records for this station are not official NWS values.
T = Trace of Precipitation, MM = Missing Value Source: NWS Daily Summary

Daily Weather History Graph

Daily Weather History Graph

Search for Another Location

Airport or City:

Trip Planner

Search our weather history database for the weather conditions in past years. The results will help you decide how hot, cold, wet, or windy it might be!

Date:

Astronomy

Oct. 14, 2012 Rise Set
Actual Time 7:31 AM CDT 6:48 PM CDT
Civil Twilight 7:04 AM CDT 7:14 PM CDT
Nautical Twilight 6:34 AM CDT 7:44 PM CDT
Astronomical Twilight 6:04 AM CDT 8:14 PM CDT
Moon 6:31 AM CDT (10/14) 6:09 PM CDT (10/14)
Length of Visible Light 12h 09m
Length of Day
11h 17m
Waning Crescent, 1% of the Moon is Illuminated
Oct 14
Waning Crescent
Oct 15
New
Oct 21
First Quarter
Oct 29
Full
Nov 6
Last Quarter

Hourly Weather History & Observations

Time (CDT) Temp. Dew Point Humidity Pressure Visibility Wind Dir Wind Speed Gust Speed Precip Events Conditions
12:53 AM 66.0 °F 64.9 °F 96% 29.65 in 10.0 mi SW 9.2 mph - N/A   Clear
1:53 AM 64.9 °F 61.0 °F 87% 29.68 in 10.0 mi SW 13.8 mph 21.9 mph N/A   Clear
2:53 AM 61.0 °F 53.1 °F 75% 29.70 in 10.0 mi WSW 10.4 mph - N/A   Clear
3:53 AM 59.0 °F 51.1 °F 75% 29.70 in 10.0 mi SW 10.4 mph - N/A   Clear
4:53 AM 57.0 °F 51.1 °F 81% 29.71 in 10.0 mi WSW 9.2 mph - N/A   Clear
5:53 AM 57.0 °F 51.1 °F 81% 29.73 in 10.0 mi WSW 8.1 mph - N/A   Partly Cloudy
6:53 AM 57.0 °F 51.1 °F 81% 29.80 in 10.0 mi West 8.1 mph - N/A   Clear
7:53 AM 57.9 °F 52.0 °F 81% 29.85 in 10.0 mi WNW 5.8 mph - N/A   Clear
8:53 AM 62.1 °F 53.1 °F 72% 29.89 in 10.0 mi WNW 5.8 mph - N/A   Clear
9:53 AM 64.9 °F 54.0 °F 68% 29.94 in 10.0 mi Variable 3.5 mph - N/A   Clear
10:53 AM 68.0 °F 54.0 °F 61% 29.98 in 10.0 mi Variable 5.8 mph - N/A   Clear
11:53 AM 72.0 °F 51.1 °F 48% 30.00 in 10.0 mi Variable 4.6 mph - N/A   Clear
12:53 PM 75.0 °F 48.0 °F 38% 30.00 in 10.0 mi Variable 4.6 mph - N/A   Clear
1:53 PM 77.0 °F 45.0 °F 32% 29.99 in 10.0 mi North 9.2 mph - N/A   Clear
3:53 PM 77.0 °F 44.1 °F 31% 30.00 in 10.0 mi Variable 4.6 mph - N/A   Clear
4:53 PM 75.9 °F 44.1 °F 32% 30.01 in 10.0 mi Variable 3.5 mph - N/A   Clear
5:53 PM 73.9 °F 44.1 °F 34% 30.02 in 10.0 mi Calm Calm - N/A   Clear
6:53 PM 66.0 °F 45.0 °F 47% 30.02 in 10.0 mi Calm Calm - N/A   Clear
7:53 PM 57.0 °F 48.9 °F 74% 30.04 in 10.0 mi Calm Calm - N/A   Clear
8:53 PM 53.1 °F 50.0 °F 89% 30.05 in 10.0 mi Calm Calm - N/A   Clear
9:53 PM 51.1 °F 50.0 °F 96% 30.06 in 10.0 mi Calm Calm - N/A   Clear
10:53 PM 48.9 °F 48.9 °F 100% 30.06 in 10.0 mi Calm Calm - N/A   Clear
11:53 PM 48.9 °F 48.9 °F 100% 30.05 in 10.0 mi Calm Calm - N/A   Clear